{"data":{"norad_id":59252,"epoch":"2026-09-20T22:18:51.743520Z","epoch_age_seconds":121685,"freshness":"FRESH","line1":"1 59252U 24049X   26263.92976555 -.00000551  00000+0 -10515-4 0  9997","line2":"2 59252  43.0027 106.3619 0001142 274.1827  85.8894 15.27572059142435","mean_motion":15.27572059,"eccentricity":0.0001142,"inclination_deg":43.0027,"raan_deg":106.3619,"arg_perigee_deg":274.1827,"mean_anomaly_deg":85.8894,"bstar":-1.0515e-5,"rev_number":14243,"period_min":94.267238754201,"perigee_km":482.28932418577,"apogee_km":483.85642452107,"semimajor_km":6861.2098743534,"source":"CELESTRAK","updated_at":"2026-09-21T09:00:34.079041Z"}}